AAL625 KSAN-KPHX

Flight info

Callsign AAL625
Flight time 0h 52m
Altitude 35000
Route ZZOOO4 HOGGZ HYDRR1
Aircraft A320/M-SDE3FGHIRWY/LB1

Departure

Time 2026-05-07 23:49
Airport San Diego International Airport (KSAN)

Arrival

Time 2026-05-08 00:42
Airport Phoenix Sky Harbor International Airport (KPHX)
Time Latitude Longitude Altitude Speed Heading
2026-05-07 23:17 32.73423 -117.20186 23 ft 0 kts 169°
2026-05-07 23:36 32.73425 -117.20186 22 ft 3 kts 169°
2026-05-07 23:36 32.73451 -117.20193 24 ft 4 kts 165°
2026-05-07 23:36 32.73477 -117.20202 25 ft 4 kts 159°
2026-05-07 23:37 32.73501 -117.20215 24 ft 4 kts 145°
2026-05-07 23:37 32.73515 -117.20229 25 ft 4 kts 118°
2026-05-07 23:37 32.73520 -117.20241 24 ft 0 kts 66°
2026-05-07 23:40 32.73522 -117.20235 26 ft 4 kts 66°
2026-05-07 23:40 32.73538 -117.20176 24 ft 11 kts 82°
2026-05-07 23:41 32.73520 -117.20070 23 ft 13 kts 107°
2026-05-07 23:41 32.73495 -117.19970 23 ft 12 kts 106°
2026-05-07 23:41 32.73473 -117.19880 25 ft 11 kts 105°
2026-05-07 23:41 32.73453 -117.19795 23 ft 12 kts 105°
2026-05-07 23:42 32.73425 -117.19678 23 ft 17 kts 105°
2026-05-07 23:42 32.73386 -117.19519 24 ft 21 kts 106°
2026-05-07 23:42 32.73346 -117.19354 25 ft 21 kts 106°
2026-05-07 23:42 32.73319 -117.19245 22 ft 20 kts 106°
2026-05-07 23:43 32.73282 -117.19092 24 ft 19 kts 105°
2026-05-07 23:43 32.73246 -117.18942 23 ft 18 kts 106°
2026-05-07 23:43 32.73213 -117.18802 23 ft 17 kts 106°
2026-05-07 23:43 32.73181 -117.18670 23 ft 16 kts 106°
2026-05-07 23:44 32.73151 -117.18546 22 ft 15 kts 106°
2026-05-07 23:44 32.73121 -117.18426 22 ft 16 kts 106°
2026-05-07 23:44 32.73088 -117.18289 22 ft 18 kts 106°
2026-05-07 23:44 32.73054 -117.18148 22 ft 17 kts 106°
2026-05-07 23:45 32.73022 -117.18016 23 ft 16 kts 105°
2026-05-07 23:45 32.72992 -117.17890 23 ft 15 kts 106°
2026-05-07 23:45 32.72962 -117.17781 22 ft 11 kts 108°
2026-05-07 23:45 32.72948 -117.17718 22 ft 2 kts 93°
2026-05-07 23:46 32.72949 -117.17708 22 ft 0 kts 84°
2026-05-07 23:47 32.72951 -117.17692 22 ft 6 kts 82°
2026-05-07 23:47 32.72964 -117.17636 22 ft 7 kts 70°
2026-05-07 23:47 32.72981 -117.17588 22 ft 6 kts 67°
2026-05-07 23:48 32.73001 -117.17558 22 ft 3 kts 17°
2026-05-07 23:48 32.73018 -117.17580 22 ft 8 kts 298°
2026-05-07 23:48 32.73053 -117.17708 22 ft 30 kts 285°
2026-05-07 23:48 32.73165 -117.18192 22 ft 93 kts 288°
2026-05-07 23:49 32.73401 -117.19153 23 ft 146 kts 286°
2026-05-07 23:49 32.73708 -117.20389 451 ft 156 kts 285°
2026-05-07 23:49 32.74002 -117.21624 1133 ft 155 kts 285°
2026-05-07 23:49 32.74297 -117.22860 1797 ft 157 kts 285°
2026-05-07 23:50 32.74612 -117.24171 2116 ft 175 kts 286°
2026-05-07 23:50 32.74967 -117.25646 2324 ft 196 kts 286°
2026-05-07 23:50 32.75362 -117.27275 2518 ft 212 kts 287°
2026-05-07 23:50 32.75776 -117.28983 2915 ft 216 kts 287°
2026-05-07 23:51 32.76194 -117.30705 3344 ft 218 kts 286°
2026-05-07 23:51 32.76531 -117.32465 3758 ft 220 kts 273°
2026-05-07 23:51 32.76054 -117.34185 4119 ft 227 kts 236°
2026-05-07 23:51 32.74770 -117.35316 4400 ft 243 kts 201°
2026-05-07 23:52 32.73039 -117.35326 4692 ft 261 kts 162°
2026-05-07 23:52 32.71503 -117.34156 5149 ft 266 kts 140°
2026-05-07 23:52 32.70145 -117.32694 5686 ft 267 kts 136°
2026-05-07 23:52 32.68808 -117.31151 6243 ft 269 kts 135°
2026-05-07 23:53 32.67474 -117.29585 6788 ft 270 kts 135°
2026-05-07 23:53 32.66130 -117.28019 7317 ft 271 kts 135°
2026-05-07 23:53 32.64780 -117.26449 7865 ft 272 kts 133°
2026-05-07 23:53 32.63670 -117.24641 8419 ft 272 kts 116°
2026-05-07 23:54 32.62986 -117.22515 8793 ft 285 kts 100°
2026-05-07 23:54 32.62741 -117.20151 9346 ft 292 kts 94°
2026-05-07 23:54 32.62536 -117.17747 10062 ft 294 kts 94°
2026-05-07 23:54 32.62314 -117.15250 10322 ft 315 kts 94°
2026-05-07 23:55 32.62085 -117.12581 10526 ft 333 kts 91°
2026-05-07 23:55 32.62233 -117.09823 11032 ft 337 kts 77°
2026-05-07 23:55 32.62929 -117.07169 11674 ft 338 kts 68°
2026-05-07 23:55 32.63786 -117.04556 12337 ft 340 kts 68°
2026-05-07 23:56 32.64646 -117.01931 13013 ft 343 kts 67°
2026-05-07 23:56 32.65510 -116.99290 13691 ft 345 kts 67°
2026-05-07 23:56 32.66310 -116.96602 14288 ft 348 kts 74°
2026-05-07 23:56 32.66687 -116.93751 14847 ft 353 kts 85°
2026-05-07 23:57 32.66757 -116.90828 15428 ft 355 kts 86°
2026-05-07 23:57 32.66823 -116.87889 15999 ft 358 kts 86°
2026-05-07 23:57 32.66890 -116.84924 16557 ft 361 kts 86°
2026-05-07 23:57 32.66957 -116.81940 17117 ft 363 kts 86°
2026-05-07 23:58 32.67025 -116.78935 17660 ft 366 kts 86°
2026-05-07 23:58 32.67099 -116.75908 18198 ft 368 kts 86°
2026-05-07 23:58 32.67139 -116.72861 18686 ft 371 kts 87°
2026-05-07 23:58 32.67115 -116.69790 19147 ft 374 kts 88°
2026-05-07 23:59 32.67052 -116.66695 19581 ft 376 kts 89°
2026-05-07 23:59 32.66974 -116.63577 19990 ft 380 kts 89°
2026-05-07 23:59 32.66897 -116.60439 20404 ft 382 kts 89°
2026-05-07 23:59 32.66830 -116.57273 20818 ft 385 kts 88°
2026-05-08 00:00 32.66771 -116.54080 21225 ft 387 kts 88°
2026-05-08 00:00 32.66715 -116.50877 21585 ft 390 kts 88°
2026-05-08 00:00 32.66658 -116.47641 21965 ft 393 kts 88°
2026-05-08 00:00 32.66601 -116.44388 22340 ft 396 kts 88°
2026-05-08 00:01 32.66693 -116.41127 22687 ft 396 kts 81°
2026-05-08 00:01 32.67003 -116.37871 23057 ft 398 kts 81°
2026-05-08 00:01 32.67310 -116.34595 23432 ft 401 kts 81°
2026-05-08 00:01 32.67614 -116.31296 23778 ft 403 kts 81°
2026-05-08 00:02 32.67916 -116.27984 24094 ft 405 kts 81°
2026-05-08 00:02 32.68214 -116.24652 24435 ft 407 kts 81°
2026-05-08 00:02 32.68512 -116.21305 24781 ft 408 kts 81°
2026-05-08 00:02 32.68811 -116.17946 25109 ft 410 kts 81°
2026-05-08 00:03 32.69113 -116.14572 25459 ft 412 kts 81°
2026-05-08 00:03 32.69416 -116.11183 25810 ft 414 kts 81°
2026-05-08 00:03 32.69715 -116.07780 26157 ft 415 kts 81°
2026-05-08 00:03 32.70014 -116.04367 26486 ft 417 kts 81°
2026-05-08 00:04 32.70317 -116.00930 26808 ft 419 kts 81°
2026-05-08 00:04 32.70633 -115.97480 27119 ft 421 kts 80°
2026-05-08 00:04 32.70958 -115.94022 27424 ft 423 kts 80°
2026-05-08 00:04 32.71288 -115.90546 27738 ft 425 kts 80°
2026-05-08 00:05 32.71617 -115.87055 28035 ft 426 kts 80°
2026-05-08 00:05 32.71943 -115.83550 28337 ft 428 kts 80°
2026-05-08 00:05 32.72267 -115.80028 28650 ft 430 kts 80°
2026-05-08 00:05 32.72590 -115.76491 28941 ft 431 kts 80°
2026-05-08 00:06 32.72914 -115.72945 29244 ft 433 kts 80°
2026-05-08 00:06 32.73237 -115.69386 29539 ft 435 kts 80°
2026-05-08 00:06 32.73557 -115.65808 29830 ft 436 kts 80°
2026-05-08 00:06 32.73876 -115.62219 30080 ft 438 kts 80°
2026-05-08 00:07 32.74198 -115.58618 30292 ft 439 kts 80°
2026-05-08 00:07 32.74520 -115.55007 30523 ft 440 kts 80°
2026-05-08 00:07 32.74840 -115.51392 30778 ft 441 kts 81°
2026-05-08 00:07 32.75082 -115.47765 31110 ft 440 kts 83°
2026-05-08 00:08 32.75214 -115.44137 31442 ft 439 kts 84°
2026-05-08 00:08 32.75273 -115.40515 31771 ft 438 kts 85°
2026-05-08 00:08 32.75301 -115.36895 32100 ft 437 kts 85°
2026-05-08 00:08 32.75330 -115.33290 32440 ft 436 kts 85°
2026-05-08 00:09 32.75376 -115.29696 32760 ft 435 kts 85°
2026-05-08 00:09 32.75440 -115.26113 33080 ft 433 kts 85°
2026-05-08 00:09 32.75520 -115.22542 33412 ft 432 kts 84°
2026-05-08 00:09 32.75610 -115.18980 33726 ft 431 kts 84°
2026-05-08 00:10 32.75701 -115.15432 34012 ft 429 kts 84°
2026-05-08 00:10 32.75791 -115.11886 34255 ft 429 kts 84°
2026-05-08 00:10 32.75877 -115.08343 34482 ft 429 kts 84°
2026-05-08 00:10 32.75953 -115.04800 34707 ft 429 kts 84°
2026-05-08 00:11 32.76025 -115.01250 34832 ft 431 kts 84°
2026-05-08 00:11 32.76097 -114.97671 34856 ft 436 kts 84°
2026-05-08 00:11 32.76247 -114.90387 34849 ft 445 kts 84°
2026-05-08 00:12 32.76389 -114.83006 34851 ft 448 kts 84°
2026-05-08 00:12 32.76531 -114.75604 34857 ft 448 kts 84°
2026-05-08 00:13 32.76667 -114.68206 34858 ft 448 kts 85°
2026-05-08 00:13 32.76799 -114.60798 34865 ft 448 kts 84°
2026-05-08 00:14 32.76919 -114.53391 34869 ft 448 kts 85°
2026-05-08 00:14 32.76967 -114.49729 34786 ft 436 kts 85°
2026-05-08 00:14 32.77007 -114.46188 34004 ft 425 kts 85°
2026-05-08 00:15 32.77048 -114.42694 32813 ft 420 kts 84°
2026-05-08 00:15 32.77091 -114.39235 31569 ft 419 kts 84°
2026-05-08 00:15 32.77139 -114.35757 30447 ft 423 kts 84°
2026-05-08 00:15 32.77189 -114.32262 29623 ft 422 kts 84°
2026-05-08 00:16 32.77235 -114.28791 28967 ft 419 kts 84°
2026-05-08 00:16 32.77276 -114.25347 28359 ft 414 kts 85°
2026-05-08 00:16 32.77315 -114.21940 27773 ft 410 kts 85°
2026-05-08 00:16 32.77354 -114.18567 27199 ft 406 kts 85°
2026-05-08 00:17 32.77391 -114.15230 26630 ft 402 kts 85°
2026-05-08 00:17 32.77424 -114.11944 26065 ft 398 kts 85°
2026-05-08 00:17 32.77457 -114.08669 25502 ft 395 kts 85°
2026-05-08 00:17 32.77639 -114.05445 24999 ft 387 kts 78°
2026-05-08 00:18 32.78011 -114.02273 24825 ft 388 kts 78°
2026-05-08 00:18 32.78371 -113.99099 24831 ft 388 kts 78°
2026-05-08 00:18 32.78722 -113.95914 24836 ft 389 kts 79°
2026-05-08 00:18 32.79068 -113.92730 24837 ft 389 kts 79°
2026-05-08 00:19 32.79414 -113.89544 24835 ft 389 kts 79°
2026-05-08 00:19 32.79753 -113.86400 24835 ft 389 kts 79°
2026-05-08 00:19 32.80094 -113.83216 24836 ft 389 kts 79°
2026-05-08 00:19 32.80435 -113.80031 24836 ft 388 kts 79°
2026-05-08 00:20 32.80780 -113.76850 24838 ft 388 kts 79°
2026-05-08 00:20 32.81142 -113.73670 24834 ft 387 kts 76°
2026-05-08 00:20 32.81820 -113.70599 24839 ft 383 kts 66°
2026-05-08 00:20 32.82921 -113.67737 24843 ft 379 kts 57°
2026-05-08 00:21 32.84402 -113.65161 24841 ft 377 kts 49°
2026-05-08 00:21 32.86132 -113.62822 24849 ft 376 kts 47°
2026-05-08 00:21 32.87870 -113.60497 24853 ft 376 kts 47°
2026-05-08 00:21 32.89605 -113.58168 24855 ft 376 kts 47°
2026-05-08 00:22 32.91339 -113.55834 24854 ft 376 kts 47°
2026-05-08 00:22 32.93073 -113.53499 24855 ft 376 kts 47°
2026-05-08 00:22 32.94807 -113.51159 24714 ft 377 kts 47°
2026-05-08 00:22 32.96527 -113.48835 24263 ft 370 kts 47°
2026-05-08 00:23 32.98213 -113.46552 23783 ft 364 kts 47°
2026-05-08 00:23 32.99870 -113.44308 23334 ft 358 kts 47°
2026-05-08 00:23 33.01498 -113.42105 22857 ft 351 kts 47°
2026-05-08 00:23 33.03094 -113.39943 22437 ft 344 kts 47°
2026-05-08 00:24 33.04657 -113.37823 22028 ft 337 kts 47°
2026-05-08 00:24 33.06203 -113.35731 21689 ft 341 kts 47°
2026-05-08 00:24 33.07814 -113.33558 21502 ft 355 kts 47°
2026-05-08 00:24 33.09464 -113.31339 21256 ft 358 kts 47°
2026-05-08 00:25 33.11116 -113.29114 21032 ft 358 kts 47°
2026-05-08 00:25 33.12764 -113.26889 20796 ft 357 kts 48°
2026-05-08 00:25 33.14406 -113.24667 20560 ft 356 kts 48°
2026-05-08 00:25 33.16032 -113.22465 20327 ft 355 kts 48°
2026-05-08 00:26 33.17664 -113.20258 20100 ft 354 kts 48°
2026-05-08 00:26 33.19288 -113.18051 19865 ft 353 kts 48°
2026-05-08 00:26 33.20907 -113.15848 19637 ft 352 kts 48°
2026-05-08 00:26 33.22519 -113.13650 19406 ft 352 kts 48°
2026-05-08 00:27 33.23609 -113.12167 19247 ft 351 kts 48°
2026-05-08 00:27 33.25216 -113.09976 19055 ft 347 kts 50°
2026-05-08 00:27 33.26514 -113.07661 18820 ft 337 kts 62°
2026-05-08 00:27 33.27298 -113.05053 18536 ft 333 kts 76°
2026-05-08 00:28 33.27551 -113.02305 18310 ft 334 kts 86°
2026-05-08 00:28 33.27610 -112.99533 18082 ft 333 kts 86°
2026-05-08 00:28 33.27676 -112.96778 17817 ft 331 kts 85°
2026-05-08 00:28 33.27745 -112.94029 17563 ft 330 kts 86°
2026-05-08 00:29 33.27814 -112.91296 17307 ft 329 kts 85°
2026-05-08 00:29 33.27883 -112.88570 17055 ft 327 kts 85°
2026-05-08 00:29 33.27952 -112.85862 16798 ft 323 kts 85°
2026-05-08 00:29 33.28016 -112.83217 16545 ft 314 kts 85°
2026-05-08 00:30 33.28121 -112.80650 16294 ft 306 kts 83°
2026-05-08 00:30 33.28325 -112.78138 16046 ft 302 kts 81°
2026-05-08 00:30 33.28575 -112.75653 15800 ft 300 kts 80°
2026-05-08 00:30 33.28837 -112.73179 15556 ft 299 kts 80°
2026-05-08 00:31 33.29095 -112.70719 15315 ft 298 kts 81°
2026-05-08 00:31 33.29342 -112.68265 15071 ft 297 kts 81°
2026-05-08 00:31 33.29581 -112.65815 14831 ft 296 kts 81°
2026-05-08 00:31 33.29815 -112.63374 14595 ft 295 kts 81°
2026-05-08 00:32 33.30044 -112.60939 14348 ft 294 kts 81°
2026-05-08 00:32 33.30269 -112.58512 14188 ft 294 kts 81°
2026-05-08 00:32 33.30494 -112.56086 13936 ft 293 kts 81°
2026-05-08 00:32 33.30714 -112.53679 13569 ft 290 kts 81°
2026-05-08 00:33 33.30933 -112.51290 13133 ft 289 kts 81°
2026-05-08 00:33 33.31153 -112.48907 12677 ft 288 kts 81°
2026-05-08 00:33 33.31372 -112.46529 12228 ft 288 kts 81°
2026-05-08 00:33 33.31593 -112.44156 11778 ft 287 kts 81°
2026-05-08 00:34 33.31815 -112.41781 11333 ft 287 kts 82°
2026-05-08 00:34 33.32034 -112.39411 10908 ft 286 kts 82°
2026-05-08 00:34 33.32252 -112.37045 10479 ft 286 kts 82°
2026-05-08 00:34 33.32468 -112.34684 10050 ft 286 kts 82°
2026-05-08 00:35 33.32683 -112.32326 9629 ft 285 kts 82°
2026-05-08 00:35 33.32895 -112.29973 9197 ft 284 kts 82°
2026-05-08 00:35 33.33105 -112.27626 8738 ft 284 kts 82°
2026-05-08 00:35 33.33316 -112.25276 8259 ft 284 kts 83°
2026-05-08 00:36 33.33529 -112.22921 7796 ft 285 kts 83°
2026-05-08 00:36 33.33744 -112.20563 7330 ft 286 kts 83°
2026-05-08 00:36 33.33960 -112.18199 6843 ft 286 kts 83°
2026-05-08 00:36 33.34170 -112.15880 6718 ft 274 kts 83°
2026-05-08 00:37 33.34367 -112.13664 6601 ft 263 kts 83°
2026-05-08 00:37 33.34555 -112.11531 6476 ft 253 kts 83°
2026-05-08 00:37 33.34734 -112.09451 6238 ft 250 kts 86°
2026-05-08 00:38 33.34693 -112.05488 5572 ft 229 kts 91°
2026-05-08 00:38 33.34674 -112.03585 4933 ft 229 kts 91°
2026-05-08 00:38 33.34654 -112.01683 4334 ft 227 kts 91°
2026-05-08 00:38 33.34641 -111.99807 3669 ft 224 kts 89°
2026-05-08 00:39 33.34970 -111.98007 3113 ft 219 kts 69°
2026-05-08 00:39 33.35702 -111.96463 2617 ft 211 kts 42°
2026-05-08 00:39 33.36889 -111.95556 2142 ft 197 kts 25°
2026-05-08 00:39 33.38098 -111.95072 2005 ft 174 kts
2026-05-08 00:40 33.39246 -111.94839 1931 ft 161 kts
2026-05-08 00:40 33.40335 -111.94643 1683 ft 155 kts
2026-05-08 00:40 33.41404 -111.94496 1359 ft 154 kts 360°
2026-05-08 00:40 33.42457 -111.94746 1413 ft 158 kts 335°
2026-05-08 00:41 33.43348 -111.95490 1731 ft 156 kts 311°
2026-05-08 00:41 33.43933 -111.96576 1717 ft 157 kts 290°
2026-05-08 00:41 33.44079 -111.97828 1453 ft 149 kts 269°
2026-05-08 00:41 33.44081 -111.99049 1233 ft 146 kts 270°
2026-05-08 00:42 33.44081 -112.00218 1162 ft 129 kts 271°
2026-05-08 00:42 33.44085 -112.01104 1126 ft 45 kts 269°